Temperature
20 20 20 20 23 27 26 25 26 25 25 24 24 24 24 23 23 22 18 18 18 19 18 19 19 19 19 19 19 19 19 19 19 19 19 19 19 19 19 19 19 19 19 19 19 19 19 19 19
20 20 20 22 26 26 25 25 25 24 24 24 24 24 24 22 20 19 18 18 18 18 18 18 19 19 19 19 19 19 19 19 19 19 19 19 19 19 19 19 19 19 19 19 19 19 19 19 19
20 20 22 26 26 26 25 24 25 24 23 24 24 23 22 20 18 18 18 18 18 18 18 18 19 19 19 19 19 19 19 19 19 19 19 19 19 19 19 19 19 19 19 19 19 19 19 19 19
20 21 24 26 25 24 24 24 24 24 23 23 23 22 19 17 17 18 18 18 18 18 18 18 18 18 18 18 18 18 19 19 19 19 19 19 19 19 19 19 19 19 19 19 19 18 18 19 18
21 24 26 26 25 24 24 23 23 24 23 22 23 22 19 17 17 18 18 18 18 18 18 18 18 18 18 18 18 18 18 18 18 18 18 18 18 19 19 19 19 18 18 18 18 18 18 18 18
23 26 27 26 25 24 24 23 23 23 23 22 22 21 18 17 17 18 18 18 18 18 18 18 18 18 18 18 18 18 18 18 18 18 18 18 18 18 18 18 18 18 18 18 18 18 18 18 18
25 27 26 26 24 24 24 22 23 23 22 21 21 21 18 17 17 17 17 17 18 18 18 18 17 17 18 18 18 18 18 18 18 18 18 18 18 18 18 18 18 18 18 18 18 18 18 18 18
24 27 26 26 25 24 23 22 21 22 21 19 20 21 19 17 17 17 17 17 17 17 17 17 17 17 17 17 17 18 18 18 18 18 18 18 18 18 18 18 18 18 18 18 18 18 18 18 18
23 27 26 26 25 24 23 22 21 20 20 19 18 18 17 17 17 17 17 17 16 17 17 17 17 17 17 17 17 17 17 17 17 17 17 17 17 17 17 17 17 18 18 18 18 18 18 18 18
25 27 26 24 25 24 22 22 21 21 21 20 18 17 17 17 17 17 17 17 16 16 16 16 16 16 16 16 17 17 17 17 17 17 17 17 17 17 17 17 17 18 18 18 18 18 18 18 17
26 26 24 23 22 22 22 21 21 22 22 20 19 18 17 17 17 17 17 16 16 16 15 15 15 15 15 16 16 16 16 17 17 17 17 17 17 17 17 17 17 17 17 17 17 17 17 17 17
25 23 23 22 21 22 22 21 21 21 20 19 18 18 18 18 17 17 17 16 16 15 15 15 15 15 15 15 15 15 15 16 16 16 16 17 17 17 17 17 17 17 17 17 17 17 17 17 17
25 23 21 21 20 21 21 21 20 19 18 18 17 17 17 17 17 17 16 16 16 15 15 14 14 14 14 14 14 14 15 15 15 16 16 16 16 16 17 17 17 17 17 17 17 17 17 17 17
24 22 21 21 21 21 21 20 21 19 18 18 18 18 18 17 17 17 16 16 15 15 14 14 14 14 13 13 14 14 14 14 14 15 15 15 16 16 16 17 17 17 17 17 17 17 17 17 17
23 23 23 22 22 21 22 22 21 19 18 18 18 18 17 17 16 16 16 15 15 14 14 14 13 13 13 13 13 13 13 14 14 14 14 15 15 16 16 16 16 17 17 17 17 17 17 17 17
24 25 24 23 22 21 22 23 21 19 19 19 19 18 17 17 17 16 15 15 15 14 14 13 13 13 13 13 13 13 13 13 13 14 14 14 14 15 15 16 16 16 16 17 17 17 17 17 17
25 26 25 24 23 22 22 23 21 19 19 19 19 18 18 18 17 16 15 15 14 14 14 13 13 13 12 13 13 13 13 13 13 13 13 14 14 14 15 15 16 16 16 16 16 16 17 17 17
26 26 26 25 23 22 22 23 21 19 19 20 19 19 18 18 17 16 15 15 14 14 13 13 13 12 12 12 12 12 12 13 13 13 13 13 14 14 14 15 15 15 16 16 16 16 17 17 17
26 26 25 24 22 22 23 23 22 20 19 19 19 19 19 18 17 16 15 15 14 14 13 13 13 12 12 12 12 12 12 12 12 12 13 13 13 13 14 14 14 15 15 16 16 16 16 16 16
26 25 25 23 22 22 23 23 23 21 20 20 20 19 19 18 17 17 16 15 14 14 13 13 13 12 12 12 12 12 12 12 12 12 12 13 13 13 13 14 14 14 15 15 15 16 16 16 16
25 25 24 23 22 22 22 23 23 22 20 19 18 18 18 17 17 17 16 15 14 14 13 13 12 12 12 12 12 12 12 12 12 12 12 12 13 13 13 13 14 14 15 15 15 15 16 16 16
24 23 23 22 23 23 22 23 23 22 21 20 19 19 18 17 17 16 15 15 14 14 13 13 12 12 12 11 12 11 11 12 12 12 12 12 12 13 13 13 13 14 14 14 15 15 15 15 15
23 22 22 22 23 23 22 23 24 22 22 22 20 19 18 17 16 16 15 15 14 13 13 12 12 12 11 11 11 11 11 11 11 12 12 12 12 12 12 13 13 13 13 14 14 14 15 15 15
22 22 22 22 23 23 23 22 23 23 22 22 20 19 18 17 16 16 15 14 14 13 13 12 12 12 11 11 11 11 11 11 11 11 12 12 12 12 12 12 13 13 13 13 14 14 14 15 15
23 23 23 23 23 23 22 22 23 23 22 21 20 19 18 17 17 16 15 15 14 13 13 12 12 12 11 11 11 11 11 11 11 11 11 11 12 12 12 12 12 12 13 13 13 14 14 14 14
23 24 23 23 23 23 22 22 23 22 20 19 19 18 18 17 17 16 15 15 14 13 13 13 12 12 12 11 11 11 11 11 11 11 11 11 11 11 12 12 12 12 12 13 13 13 14 14 14
23 23 23 23 22 23 23 23 23 21 21 20 19 18 18 17 17 16 15 15 14 14 13 13 12 12 12 11 11 11 11 11 11 11 11 11 11 11 11 12 12 12 12 12 13 13 13 14 14
23 22 22 22 22 23 23 23 23 23 22 22 20 19 18 18 17 16 15 15 14 14 13 13 13 12 12 11 11 11 11 11 11 10 10 11 11 11 11 11 11 11 12 12 12 13 13 13 13
21 21 22 22 22 22 22 23 23 22 22 21 21 19 18 18 17 16 16 15 14 14 14 13 13 12 12 12 11 11 11 10 10 10 10 10 10 11 11 11 11 11 11 12 12 12 12 13 13
22 22 22 22 22 21 22 23 22 22 21 20 20 19 18 17 17 16 16 15 15 14 14 13 13 13 12 12 11 11 11 10 10 10 10 10 10 10 10 11 11 11 11 11 11 12 12 12 13
Wind_Speed
11 8 5 3 3 3 7 6 5 5 4 6 6 4 5 8 6 4 4 3 2 6 8 9 8 8 8 7 7 7 7 7 6 7 7 6 6 6 5 5 4 4 3 3 3 2 2 2 2
10 6 3 3 1 5 6 6 8 8 6 3 4 5 6 8 7 5 4 3 2 5 6 6 7 6 7 7 7 7 7 7 7 7 7 7 6 6 5 5 5 4 4 3 3 2 2 2 2
9 4 3 1 2 5 5 5 6 6 7 4 4 6 5 6 7 5 5 2 3 4 3 3 2 4 6 7 7 8 8 8 8 8 8 8 7 7 6 6 5 5 4 4 3 3 2 2 1
5 4 3 1 6 5 4 4 4 2 5 7 4 6 6 7 7 7 6 4 3 3 2 4 3 1 3 5 6 7 8 8 9 8 8 8 8 8 7 7 6 6 5 5 4 3 3 2 2
4 3 2 3 5 4 4 4 4 4 4 6 5 6 6 7 9 8 7 7 5 4 5 6 9 7 6 5 5 7 8 9 9 9 9 9 9 9 9 8 8 7 6 6 5 4 4 3 2
3 3 1 3 5 4 4 3 3 5 6 5 5 5 5 7 9 9 8 8 8 7 7 8 9 10 10 9 8 8 9 9 9 10 10 10 10 10 10 9 9 8 8 7 6 5 5 4 3
3 2 1 3 4 4 3 3 4 4 6 6 4 4 5 8 8 7 8 8 9 9 8 9 9 8 8 9 10 10 9 9 10 10 11 11 11 11 11 11 10 10 9 8 8 7 6 5 4
3 1 2 2 3 3 4 3 4 5 5 5 4 4 5 6 6 7 8 8 9 9 8 8 8 8 8 8 9 10 9 9 9 9 11 12 12 12 13 13 12 11 10 10 9 8 7 6 6
3 2 0 1 1 4 5 4 4 4 7 7 7 7 6 5 5 6 7 8 8 8 8 7 7 7 7 7 8 9 9 8 8 7 9 11 11 13 12 14 11 11 11 11 10 10 9 8 9
2 1 2 2 2 5 6 4 5 4 6 7 8 8 6 5 5 7 8 8 9 9 8 7 6 6 7 6 6 6 7 6 6 7 8 8 9 10 11 9 10 12 12 12 12 11 11 12 11
1 2 4 4 5 6 6 5 3 4 4 4 6 6 5 5 6 7 8 8 8 8 8 8 8 7 7 6 6 5 5 5 6 7 7 8 8 9 10 9 10 12 13 12 12 12 12 11 8
4 5 5 6 5 4 5 6 5 3 5 6 6 5 4 4 6 6 7 8 8 9 9 9 9 9 9 8 7 6 5 5 5 6 7 7 6 6 7 8 9 9 9 9 9 8 10 10 10
5 6 5 6 6 6 7 6 5 6 7 6 5 4 3 4 5 6 6 7 8 9 10 10 10 10 9 8 7 7 6 6 7 6 7 7 6 6 7 7 8 9 9 8 8 8 8 8 8
7 9 8 6 6 5 6 6 5 6 7 6 4 2 2 3 4 6 7 8 9 10 10 10 11 10 10 9 8 7 7 7 8 7 8 8 7 7 7 7 7 7 8 8 7 8 7 7 7
9 8 7 5 4 4 5 4 4 7 7 6 4 2 1 2 3 5 7 8 10 10 10 10 10 10 10 10 9 8 8 8 7 7 8 9 8 8 7 7 7 7 8 9 7 8 7 7 7
6 5 4 5 4 4 5 4 6 7 8 6 3 2 1 1 3 5 6 8 9 10 11 10 10 11 11 10 9 8 8 8 7 7 8 8 9 9 8 7 7 7 7 6 6 6 7 7 7
6 5 4 5 6 4 6 4 6 7 7 6 5 3 3 3 4 5 7 8 9 9 10 10 11 11 11 10 9 8 8 7 7 7 7 8 9 9 8 7 7 8 6 6 7 6 6 6 7
5 6 4 3 4 6 7 6 4 7 8 7 6 5 4 5 5 6 6 7 8 9 9 10 10 10 11 9 8 7 7 7 6 6 6 8 8 8 8 7 8 7 7 7 8 8 7 6 6
2 4 4 1 1 5 8 8 5 7 9 9 8 6 6 5 5 5 6 7 8 9 10 10 11 11 9 8 8 8 8 8 7 6 7 7 8 8 8 7 7 7 7 8 9 8 8 7 6
2 3 2 2 1 4 6 9 6 7 9 8 8 7 6 6 6 5 6 7 8 9 10 10 10 10 10 8 8 7 8 7 7 6 7 7 7 7 6 7 6 7 7 8 9 9 7 6 7
1 2 2 1 2 3 6 6 5 5 7 8 9 8 7 6 7 7 7 8 8 9 9 9 10 10 9 9 7 7 7 6 6 7 7 7 8 7 6 7 7 7 7 8 9 10 10 8 7
1 2 2 2 5 2 3 3 2 2 5 8 8 8 7 5 5 6 7 8 8 8 8 9 9 9 9 9 8 10 8 8 8 8 7 8 7 7 6 7 7 8 7 8 9 10 10 10 8
3 3 2 3 4 5 3 5 1 2 3 2 4 5 5 5 5 5 6 7 7 8 7 8 8 8 8 8 8 8 8 8 8 8 8 8 7 6 6 7 7 8 7 8 9 9 10 9 10
6 5 3 4 5 4 1 4 2 0 3 2 1 2 3 4 4 5 5 5 6 6 6 6 7 8 8 8 8 8 9 9 10 10 9 8 7 6 7 7 7 7 7 8 8 9 10 10 11
5 5 4 5 4 1 1 4 3 2 3 4 4 3 2 3 4 4 5 6 6 6 6 6 7 7 7 8 8 8 9 9 9 10 9 9 7 7 8 7 7 7 7 7 8 8 9 11 12
2 4 4 3 2 0 3 4 1 1 3 4 4 4 4 4 4 4 5 5 5 6 6 6 7 7 7 7 8 8 8 7 7 9 9 8 7 8 9 8 7 7 7 7 7 7 9 9 11
3 2 3 3 2 3 2 2 2 2 3 4 5 5 5 5 4 5 5 5 5 5 5 6 6 7 7 7 7 8 8 8 9 9 9 8 8 8 9 8 8 7 7 7 7 6 8 8 9
2 2 3 3 3 2 2 2 1 1 3 3 4 5 5 5 5 4 4 5 5 5 5 5 6 6 6 7 7 7 8 8 8 9 9 10 10 9 9 8 7 7 6 6 6 6 6 7 7
4 3 3 2 3 3 2 2 2 3 4 5 5 4 4 5 5 4 4 5 5 5 5 5 5 6 6 7 7 7 7 8 8 8 9 9 9 10 9 8 8 7 6 6 6 6 6 6 7
3 3 4 4 2 2 3 1 3 3 5 7 7 5 5 5 5 5 5 5 5 5 5 5 5 5 5 6 7 7 7 8 8 9 9 9 10 9 9 9 8 7 6 6 6 6 5 6 7
Wind_Direction
163 162 175 206 228 112 72 51 43 55 57 52 50 50 53 42 20 44 46 78 101 149 155 160 168 172 174 175 177 180 182 182 181 182 181 181 184 186 189 191 191 187 182 174 167 162 145 118 106
156 156 196 234 239 98 78 57 59 51 48 54 59 55 64 59 39 43 48 49 120 143 158 163 159 184 187 190 195 199 200 200 200 200 197 195 195 197 199 203 206 205 202 197 190 181 177 148 116
159 192 241 239 66 68 84 63 57 60 43 34 64 53 48 36 16 18 20 43 123 132 137 119 157 201 208 212 214 215 215 215 215 213 210 206 205 209 212 214 217 217 216 213 205 199 195 181 161
177 212 228 128 91 71 65 49 14 40 58 38 68 78 75 35 3 10 27 41 89 102 86 73 44 329 256 242 235 232 229 227 226 223 220 217 215 217 219 219 221 223 224 224 221 215 209 201 197
221 242 192 107 96 98 77 39 35 43 59 42 58 90 75 30 25 34 37 39 47 53 44 41 36 19 353 314 281 263 252 242 236 232 230 229 227 226 226 227 227 229 230 232 230 228 223 217 216
234 249 225 110 116 122 98 55 58 60 71 52 53 88 76 36 32 36 42 46 48 45 39 34 36 23 10 355 340 313 286 269 255 246 242 239 237 235 232 231 232 233 234 235 235 233 234 227 224
271 277 42 118 136 136 105 67 47 56 66 45 16 86 98 47 41 46 52 52 51 46 39 28 20 14 5 358 353 340 322 298 278 263 254 251 246 243 240 235 234 234 233 234 235 233 236 231 229
270 242 140 154 154 125 120 105 67 41 70 51 27 66 73 44 52 64 63 58 52 46 38 28 19 11 359 349 349 340 330 321 304 281 262 257 254 250 245 241 232 234 236 234 234 232 233 233 230
250 249 188 147 147 123 140 132 94 83 91 77 70 70 73 69 70 69 63 57 49 41 32 24 12 4 351 339 342 333 326 321 313 295 277 263 257 253 243 241 232 232 239 237 235 233 232 233 221
245 282 71 68 66 129 137 123 125 128 107 99 95 87 86 79 65 54 45 36 31 24 18 10 1 353 343 337 332 321 318 313 304 298 294 277 264 261 261 254 236 236 239 240 237 234 231 234 224
77 82 106 101 97 126 135 126 132 153 109 102 109 103 90 71 55 42 34 26 17 8 5 359 350 343 336 327 320 315 314 309 294 288 289 283 273 264 260 256 239 233 232 234 225 225 228 227 231
111 88 105 117 116 131 135 134 125 84 97 106 102 100 87 58 41 28 19 12 5 2 355 350 345 337 333 328 319 306 307 308 296 286 282 276 272 263 260 254 250 243 233 231 231 232 228 229 229
127 121 104 111 116 119 126 127 122 119 122 123 120 114 76 44 30 25 13 5 0 356 351 349 340 337 332 327 313 307 302 298 292 282 276 267 260 260 257 254 251 247 243 234 233 234 231 229 234
122 124 123 124 126 133 140 134 143 143 152 149 147 128 76 40 17 8 5 359 355 350 347 345 340 339 333 326 317 311 305 295 288 281 273 267 259 255 257 256 251 250 246 242 240 238 234 231 230
133 130 133 143 145 146 171 175 171 153 170 173 176 152 69 23 3 0 359 351 350 346 344 346 338 339 336 331 325 316 305 298 291 286 280 270 264 261 257 256 251 245 244 241 236 239 235 228 226
161 179 195 166 174 172 233 259 153 168 186 195 204 204 263 324 334 352 349 345 346 343 343 344 340 337 336 332 323 316 311 306 295 289 282 276 270 267 263 258 254 248 242 240 230 225 223 225 225
201 244 253 173 191 199 236 273 161 185 204 215 222 241 271 304 329 344 343 343 343 342 342 343 342 337 336 332 323 318 314 308 301 296 292 288 280 273 267 262 259 254 244 235 230 222 217 221 225
250 268 270 235 181 221 243 258 197 200 220 233 238 253 276 309 334 339 337 338 337 339 340 344 342 340 338 334 330 329 324 319 314 307 302 301 290 279 273 265 259 257 246 235 229 221 215 217 219
285 275 282 90 149 240 257 268 243 215 224 235 242 256 282 310 324 336 334 336 335 340 342 345 345 346 343 340 336 335 334 327 324 320 315 306 297 288 275 269 264 254 248 242 234 225 219 214 206
201 258 261 155 154 262 277 275 260 228 233 245 257 267 282 303 315 331 332 339 340 341 343 342 346 347 346 342 331 326 323 319 322 320 318 312 303 296 283 271 265 257 253 248 237 227 220 212 198
164 283 272 234 188 221 287 265 218 217 230 241 250 262 279 294 310 327 333 336 339 343 343 341 344 345 348 343 338 334 330 320 331 333 327 320 311 300 291 285 277 268 259 249 239 228 222 215 206
171 103 177 215 255 264 294 296 170 203 239 242 247 252 263 278 297 317 324 332 338 343 340 339 345 347 349 345 345 344 340 337 333 329 325 320 314 304 294 285 278 271 264 256 246 233 227 220 214
100 121 180 241 264 269 234 274 171 167 273 263 249 251 259 268 292 311 322 328 333 339 338 338 344 347 349 347 345 337 340 337 333 333 332 327 322 314 306 296 284 275 266 260 256 250 235 226 220
139 156 162 212 243 248 211 273 283 103 326 326 284 255 252 261 283 299 314 319 329 338 337 336 340 345 346 343 343 344 341 338 338 340 338 331 325 319 317 307 290 279 272 266 260 254 245 236 229
205 241 234 216 218 214 111 265 282 15 313 287 289 289 264 265 284 299 311 319 328 333 336 332 337 341 344 343 344 346 345 339 338 337 335 332 329 325 323 315 300 290 281 274 268 257 250 240 234
206 266 283 287 286 237 199 254 337 24 292 270 263 264 264 268 281 293 303 308 313 321 327 328 332 336 339 340 343 344 344 338 339 339 336 332 327 323 323 316 307 300 290 280 270 263 255 245 237
195 217 334 288 283 268 217 259 269 193 253 250 253 254 260 267 275 283 293 299 303 309 319 320 322 329 335 336 337 338 342 342 340 338 337 334 329 324 324 317 309 304 295 284 275 264 259 254 244
1 146 210 249 272 261 238 239 323 326 331 305 273 267 266 260 266 275 284 290 294 300 306 308 310 318 326 330 333 333 334 336 336 335 339 336 333 330 325 321 316 308 301 291 280 270 264 256 248
170 190 224 249 280 291 300 115 67 327 320 309 299 281 266 257 260 271 283 288 287 287 291 298 305 312 322 327 330 330 334 334 334 338 339 336 335 333 330 326 323 318 307 299 288 277 268 260 253
243 235 225 255 230 261 284 271 123 273 295 291 286 276 256 250 253 264 275 283 281 285 294 299 306 313 319 323 326 329 331 334 336 340 340 339 339 337 334 333 330 325 316 305 294 286 278 271 260
Height
1544 1544 1545 1547 1545 1539 1545 1545 1541 1542 1543 1545 1545 1544 1544 1546 1549 1556 1556 1553 1554 1555 1556 1556 1557 1558 1558 1559 1560 1560 1561 1561 1561 1562 1562 1562 1562 1562 1562 1562 1561 1561 1561 1561 1560 1560 1560 1560 1559
1545 1545 1547 1547 1540 1544 1550 1546 1546 1546 1547 1547 1547 1546 1547 1550 1554 1555 1555 1554 1555 1557 1557 1558 1558 1558 1559 1560 1560 1560 1561 1561 1561 1561 1561 1561 1561 1561 1561 1561 1561 1561 1561 1560 1560 1560 1560 1560 1559
1545 1546 1548 1542 1541 1546 1550 1548 1547 1549 1549 1548 1548 1550 1552 1556 1557 1557 1557 1556 1557 1558 1558 1558 1558 1559 1559 1560 1560 1560 1560 1560 1561 1561 1561 1561 1561 1561 1561 1560 1560 1560 1560 1560 1560 1560 1559 1559 1559
1546 1548 1547 1542 1546 1548 1549 1549 1549 1549 1550 1550 1550 1552 1557 1559 1559 1558 1557 1557 1558 1558 1558 1558 1558 1558 1559 1559 1559 1559 1559 1559 1559 1560 1560 1560 1560 1559 1559 1559 1559 1559 1559 1559 1559 1559 1559 1559 1559
1547 1546 1542 1545 1548 1549 1550 1551 1550 1549 1551 1553 1552 1554 1559 1561 1560 1559 1558 1558 1558 1558 1558 1558 1557 1558 1558 1558 1558 1558 1558 1558 1558 1558 1558 1558 1558 1558 1558 1558 1558 1558 1558 1558 1558 1558 1558 1558 1558
1548 1543 1542 1548 1549 1550 1551 1553 1552 1552 1553 1555 1555 1556 1561 1562 1560 1559 1559 1558 1558 1558 1557 1557 1557 1556 1556 1556 1556 1556 1556 1556 1556 1556 1556 1556 1556 1556 1556 1556 1556 1556 1557 1557 1557 1557 1557 1557 1557
1547 1541 1543 1545 1549 1550 1552 1554 1554 1553 1555 1558 1558 1558 1562 1563 1561 1560 1559 1559 1558 1557 1556 1556 1556 1555 1555 1554 1554 1554 1554 1553 1553 1554 1554 1554 1554 1554 1554 1554 1555 1555 1555 1555 1555 1555 1556 1556 1556
1546 1542 1544 1545 1548 1551 1554 1555 1557 1556 1558 1560 1560 1560 1563 1564 1563 1561 1560 1559 1558 1557 1556 1555 1554 1554 1553 1552 1551 1551 1551 1551 1551 1551 1551 1551 1551 1551 1552 1552 1552 1552 1553 1553 1554 1554 1554 1554 1555
1546 1543 1545 1546 1547 1550 1554 1555 1558 1559 1559 1561 1562 1563 1565 1564 1564 1563 1562 1561 1559 1558 1556 1555 1553 1552 1551 1550 1549 1549 1548 1548 1548 1548 1548 1548 1548 1549 1549 1549 1550 1550 1551 1551 1551 1552 1552 1553 1553
1545 1543 1546 1548 1548 1550 1554 1555 1558 1559 1560 1562 1564 1565 1565 1565 1565 1564 1563 1562 1560 1559 1557 1555 1553 1551 1549 1548 1547 1546 1545 1544 1544 1544 1544 1545 1545 1546 1546 1547 1547 1547 1548 1548 1549 1550 1550 1551 1553
1544 1545 1549 1551 1552 1553 1555 1557 1559 1558 1560 1563 1564 1566 1566 1566 1565 1564 1563 1562 1560 1559 1557 1554 1552 1550 1548 1546 1544 1543 1541 1540 1540 1540 1540 1541 1541 1542 1542 1543 1544 1544 1545 1546 1546 1547 1549 1550 1552
1546 1550 1551 1553 1555 1555 1556 1558 1559 1560 1563 1564 1565 1566 1566 1566 1565 1564 1563 1562 1560 1558 1555 1553 1551 1549 1547 1545 1542 1540 1539 1537 1537 1537 1537 1537 1537 1538 1539 1539 1540 1541 1542 1543 1544 1545 1547 1548 1549
1546 1551 1554 1555 1556 1557 1558 1559 1560 1563 1564 1565 1566 1566 1566 1566 1565 1564 1563 1561 1559 1557 1554 1552 1549 1547 1545 1542 1539 1538 1537 1535 1534 1533 1532 1533 1533 1533 1534 1535 1536 1537 1538 1539 1541 1542 1544 1545 1547
1548 1552 1554 1556 1557 1558 1558 1560 1561 1563 1564 1565 1566 1566 1566 1566 1565 1564 1562 1561 1558 1556 1553 1550 1547 1545 1542 1540 1538 1536 1534 1532 1531 1530 1529 1529 1529 1529 1530 1530 1531 1532 1534 1536 1537 1539 1540 1542 1543
1550 1552 1555 1556 1557 1558 1559 1558 1559 1562 1564 1565 1566 1566 1566 1565 1564 1563 1562 1560 1557 1555 1552 1549 1546 1543 1540 1537 1535 1533 1531 1530 1528 1527 1526 1525 1525 1525 1525 1526 1527 1528 1529 1531 1533 1535 1536 1538 1540
1548 1549 1551 1554 1556 1558 1559 1554 1559 1562 1563 1564 1564 1565 1565 1564 1564 1562 1561 1559 1556 1553 1551 1547 1544 1541 1538 1535 1532 1530 1529 1527 1525 1524 1523 1522 1522 1522 1522 1522 1523 1524 1525 1527 1528 1530 1532 1534 1536
1545 1546 1546 1551 1554 1555 1556 1552 1558 1561 1562 1562 1563 1563 1563 1563 1562 1561 1559 1557 1555 1552 1549 1546 1543 1539 1536 1533 1530 1528 1526 1523 1522 1521 1520 1519 1518 1518 1518 1518 1519 1520 1521 1522 1524 1526 1528 1530 1532
1543 1542 1544 1547 1551 1553 1553 1551 1556 1559 1560 1560 1561 1561 1561 1561 1561 1560 1558 1556 1554 1551 1548 1545 1542 1538 1534 1531 1529 1526 1524 1522 1520 1518 1516 1515 1514 1514 1514 1514 1515 1515 1516 1518 1519 1521 1523 1525 1528
1539 1541 1544 1548 1553 1553 1551 1550 1552 1556 1558 1558 1559 1559 1559 1559 1559 1558 1557 1555 1552 1550 1547 1544 1541 1537 1533 1530 1527 1524 1522 1519 1517 1515 1513 1511 1511 1510 1510 1510 1511 1511 1512 1513 1515 1517 1519 1521 1523
1541 1544 1546 1551 1554 1552 1550 1548 1548 1553 1555 1556 1556 1557 1557 1558 1557 1557 1555 1553 1551 1549 1546 1543 1540 1536 1533 1529 1526 1523 1520 1517 1515 1512 1510 1509 1508 1507 1507 1507 1507 1507 1508 1509 1510 1512 1514 1516 1518
1544 1545 1547 1550 1553 1552 1551 1546 1546 1549 1553 1554 1555 1556 1556 1556 1556 1555 1554 1552 1550 1547 1545 1542 1538 1535 1532 1528 1525 1522 1519 1516 1514 1511 1508 1506 1505 1504 1503 1503 1503 1503 1504 1505 1506 1507 1509 1511 1513
1547 1548 1549 1552 1551 1548 1553 1549 1542 1545 1548 1550 1552 1553 1554 1554 1554 1553 1552 1551 1549 1546 1543 1541 1538 1535 1531 1528 1525 1521 1518 1515 1513 1510 1507 1505 1503 1501 1500 1500 1500 1500 1500 1501 1502 1503 1504 1506 1508
1548 1550 1550 1551 1550 1549 1549 1550 1540 1544 1544 1545 1548 1550 1552 1552 1552 1552 1551 1549 1548 1545 1542 1539 1537 1534 1530 1527 1524 1521 1518 1515 1512 1509 1506 1503 1501 1499 1498 1497 1496 1496 1496 1496 1497 1498 1500 1501 1503
1550 1551 1551 1550 1548 1552 1549 1550 1545 1540 1542 1544 1547 1549 1550 1551 1551 1550 1549 1548 1546 1544 1541 1538 1536 1533 1529 1526 1523 1520 1517 1514 1511 1508 1505 1502 1499 1497 1495 1494 1493 1492 1492 1493 1493 1494 1495 1496 1498
1548 1548 1551 1551 1551 1548 1549 1551 1544 1540 1543 1544 1546 1547 1548 1549 1549 1548 1548 1547 1545 1543 1540 1537 1535 1532 1529 1526 1523 1520 1516 1513 1510 1506 1503 1500 1497 1495 1493 1491 1490 1489 1489 1489 1489 1489 1490 1492 1493
1546 1546 1552 1554 1551 1546 1550 1548 1539 1541 1544 1545 1546 1546 1547 1547 1547 1547 1546 1545 1543 1541 1539 1536 1534 1531 1528 1525 1522 1519 1515 1512 1509 1506 1502 1499 1496 1493 1491 1489 1487 1486 1486 1485 1485 1485 1486 1487 1488
1546 1546 1547 1548 1550 1550 1542 1542 1538 1540 1541 1543 1544 1544 1545 1545 1545 1545 1544 1543 1542 1540 1538 1535 1533 1530 1527 1524 1521 1518 1515 1511 1508 1505 1502 1498 1495 1492 1489 1487 1485 1484 1483 1482 1482 1482 1482 1483 1484
1546 1547 1549 1549 1553 1549 1546 1543 1540 1537 1537 1539 1540 1541 1542 1543 1543 1543 1542 1541 1540 1538 1536 1534 1532 1529 1526 1523 1520 1517 1514 1510 1507 1504 1500 1497 1494 1490 1487 1485 1483 1481 1480 1479 1479 1479 1478 1479 1479
1550 1550 1549 1549 1550 1551 1551 1544 1535 1537 1537 1538 1538 1539 1540 1540 1541 1541 1540 1539 1538 1536 1535 1533 1530 1528 1525 1522 1519 1516 1513 1509 1506 1503 1499 1496 1493 1489 1486 1484 1481 1479 1478 1477 1476 1476 1476 1476 1476
1545 1545 1547 1550 1549 1551 1550 1544 1535 1537 1538 1537 1537 1537 1538 1538 1538 1538 1538 1537 1536 1534 1533 1531 1529 1527 1524 1521 1518 1515 1512 1509 1505 1502 1499 1495 1492 1488 1485 1483 1480 1478 1476 1475 1474 1473 1473 1473 1473